sat.trackr.live / text

‹ back to catalog

STARLINK-32141

NORAD 60290 · 2024-132N

PAYLOAD ACTIVE UNKNOWN

§ Identity

Operator
Country
US
Launch date
2024-07-28
Launch site
AFETR
Launch vehicle
Mass (kg)
RCS (m²)

Purposes: comms

External: N2YO · Heavens-Above · Gunter

§ Orbital elements

Epoch: 2026-05-25T01:26:24.590112Z

Period
94.11 min
Inclination
53.1604°
Eccentricity
0.0001143
Mean motion
15.30193635 rev/d
Perigee alt
474.5 km
Apogee alt
476.0 km
Semi-major
6,853.4 km
B*
4.1176e-5
RAAN
57.6539°
Arg perigee
93.7241°
Mean anomaly
266.3890°
Rev number
10,325

§ Raw data

STARLINK-321411 60290U 24132N   26145.06000683  .00000860  00000+0  41176-4 0  99962 60290  53.1604  57.6539 0001143  93.7241 266.3890 15.30193635103259

JSON: /api/v1/satellites/60290 · /tle

For live sub-satellite position, see the globe view (requires WebGL).

§ Visibility from observer

Set your observer location to see the next 7 days of passes ≥ 10°. The values pass through the URL so the page stays shareable.

No JS? Fill the form by hand. The geolocation button needs JavaScript.